Wind_Speed
8 7 6 6 5 5 5 4 3 4 4 3 4 4 5 5 4 4 4 4 3 3 3 2 2 2 1 0 0 1 1 1 0 1 1 2 2 2 3 3 3 4 4 4
9 9 9 8 7 6 7 5 5 5 4 3 4 4 4 5 5 5 5 4 4 3 3 3 3 3 3 2 2 2 2 2 2 2 2 3 3 4 5 5 5 6 6 6
12 12 11 10 9 7 7 7 7 6 6 5 5 5 5 6 6 6 6 5 5 4 4 4 4 4 5 5 5 5 4 4 4 5 5 5 5 6 6 5 6 7 7 8
15 15 13 12 11 9 8 9 8 7 6 6 5 6 7 6 6 5 6 5 5 4 4 5 5 6 6 6 7 6 6 6 6 6 6 6 7 7 7 7 7 8 8 8
16 15 15 14 13 12 11 10 9 8 8 7 7 5 7 7 6 6 7 6 5 5 5 6 7 7 6 7 6 7 7 7 7 7 8 8 9 9 9 8 8 9 9 9
17 17 16 15 14 13 12 11 10 9 8 9 8 6 7 7 7 7 7 6 5 5 6 7 7 8 8 8 8 7 8 8 9 9 10 10 10 10 10 10 10 10 10 10
18 17 17 16 15 13 12 10 8 9 9 11 11 9 8 8 7 7 7 7 6 6 7 7 8 8 8 9 9 9 10 10 11 11 11 12 13 12 12 11 11 12 12 12
18 18 18 17 16 14 13 11 10 10 10 12 12 10 9 9 8 7 7 8 7 7 8 8 9 9 10 10 11 11 12 12 12 13 13 13 13 14 14 13 12 13 13 14
19 19 19 19 18 16 15 13 12 12 13 13 13 12 10 10 9 8 9 9 9 9 10 10 11 12 12 12 12 13 14 14 14 14 15 15 14 15 15 15 14 14 14 14
21 21 20 20 19 19 18 16 14 13 14 14 14 13 12 12 12 11 10 11 11 11 11 12 13 13 13 14 14 14 15 15 15 15 16 16 15 15 16 16 15 15 14 14
23 22 22 22 21 20 19 18 17 16 16 15 16 15 14 14 14 14 13 12 12 13 13 14 14 14 14 15 16 17 17 16 16 16 16 16 16 15 15 15 16 16 16 16
25 24 23 23 22 22 21 20 19 18 19 18 18 18 16 15 15 15 16 15 15 15 15 15 16 16 17 17 18 18 18 18 17 17 17 17 17 17 17 16 16 17 17 17
26 26 25 23 23 23 23 22 21 21 20 20 18 19 18 18 17 17 17 17 17 16 16 17 17 17 17 18 19 19 19 19 19 18 17 17 18 18 18 18 18 19 18 18
27 27 26 24 22 23 24 24 23 23 21 22 21 21 20 19 19 19 19 18 18 18 18 18 19 18 19 19 20 20 20 20 20 20 20 20 19 19 20 20 20 20 19 19
29 28 28 27 26 26 26 25 25 25 25 25 24 24 22 21 21 21 21 20 20 20 20 20 20 20 21 21 21 21 22 21 21 21 22 22 21 21 21 21 21 21 21 21
30 30 30 29 29 28 28 28 28 27 27 27 27 25 24 23 23 23 22 22 21 21 21 21 21 22 22 23 23 23 23 23 22 22 22 22 22 23 23 23 23 23 23 24
31 31 31 30 29 29 30 29 29 29 28 27 27 26 26 25 25 24 24 23 22 22 22 22 23 24 24 24 24 24 24 25 24 24 24 24 24 25 25 25 25 25 26 27
31 31 31 30 31 32 30 29 29 29 28 28 29 28 27 27 26 26 26 26 25 25 25 25 25 25 26 27 26 26 26 26 26 25 26 25 26 26 27 27 27 27 28 28
32 31 32 31 31 32 31 30 30 30 30 28 29 29 28 28 27 28 27 27 27 27 27 27 26 27 27 27 27 27 28 28 28 28 27 28 28 28 28 28 28 29 30 30
31 31 32 32 32 31 29 29 29 29 29 29 29 29 29 28 28 29 28 28 28 28 28 28 27 27 27 28 29 29 30 31 31 30 30 30 30 30 30 30 30 31 32 32
30 29 30 31 31 30 30 29 28 28 29 29 29 29 29 29 29 29 28 28 28 29 29 29 29 29 29 30 30 31 31 32 32 32 32 32 32 32 32 32 33 33 34 34
30 30 30 30 30 30 30 29 29 29 29 30 30 30 29 29 29 29 29 29 29 30 31 31 31 31 30 30 31 31 32 33 32 32 33 33 34 34 34 33 34 34 35 36
29 29 29 29 29 29 29 30 29 30 30 30 31 31 30 30 30 30 30 31 31 30 31 31 31 31 31 31 31 32 32 34 34 34 33 34 34 34 34 34 35 36 37 37
30 30 31 30 29 29 29 29 30 31 31 31 31 32 31 31 31 31 32 31 32 31 32 31 31 30 30 31 32 32 32 33 33 34 34 34 35 35 35 35 36 37 38 39
31 31 32 32 31 31 31 30 30 31 31 32 32 32 32 32 32 32 32 32 32 32 32 32 32 32 32 32 32 32 32 32 32 33 33 34 35 36 36 37 37 38 39 38
30 30 30 30 30 31 31 31 31 31 31 32 33 32 32 33 33 33 33 33 33 33 32 32 32 32 32 32 32 32 32 32 32 32 33 35 35 36 37 37 37 37 37 37
Wind_Direction
211 211 215 223 222 228 235 241 260 279 296 301 305 318 332 334 334 339 338 337 339 334 330 335 340 344 344 337 356 312 284 255 306 272 273 283 290 296 293 295 297 293 286 286
217 225 233 239 241 242 239 246 265 282 294 296 296 310 315 322 323 323 318 310 307 312 304 301 309 320 312 289 276 276 281 271 281 285 287 297 298 301 302 294 299 292 288 289
221 230 239 244 252 251 248 252 260 277 293 299 294 308 305 307 312 318 314 308 303 290 284 286 296 299 303 305 295 271 270 273 280 285 288 293 298 296 297 292 299 301 290 289
229 234 239 244 249 249 256 259 265 275 290 292 291 294 296 301 305 312 314 303 298 289 283 284 295 300 299 297 298 294 281 277 278 282 288 291 294 295 295 297 297 298 298 292
232 237 240 242 245 248 252 260 269 276 282 286 288 287 287 292 297 303 312 301 289 277 277 285 293 296 294 293 295 297 290 284 283 284 287 291 293 290 290 293 293 293 292 293
233 238 238 240 245 250 256 263 274 281 280 276 276 283 285 286 291 296 301 298 287 283 282 282 289 291 291 291 291 294 295 287 285 286 288 291 292 290 287 289 293 297 296 293
236 240 241 242 246 251 256 263 275 280 273 268 272 279 276 277 282 286 291 296 289 289 293 288 288 290 291 292 289 288 290 291 290 290 289 289 288 289 290 288 291 293 295 295
236 239 240 242 243 244 252 251 253 258 263 270 278 277 274 275 273 276 282 292 299 295 296 292 291 291 292 293 289 288 289 288 288 288 290 293 291 287 287 285 288 290 292 294
233 237 239 241 241 241 246 249 251 260 267 267 268 273 275 273 272 275 279 284 291 293 295 296 293 292 293 293 291 288 287 288 286 286 290 290 290 288 286 285 285 289 291 294
232 236 240 243 243 242 244 249 254 258 263 263 270 274 276 272 269 275 278 281 283 287 293 293 291 292 291 291 293 293 287 287 288 289 292 292 290 288 286 283 282 285 290 291
234 238 242 243 243 242 246 249 253 258 262 263 267 269 273 277 270 269 273 278 280 282 287 289 286 287 288 290 293 294 288 284 285 288 290 289 291 292 292 288 285 288 290 293
235 237 242 244 244 244 245 248 252 257 264 267 266 270 273 276 275 272 271 275 277 277 280 282 284 282 284 290 293 290 286 284 284 285 287 287 288 290 290 290 291 294 294 292
235 236 241 245 247 248 247 250 253 255 261 266 266 271 272 274 275 275 273 274 277 278 279 279 280 281 284 287 289 287 283 283 285 286 286 286 287 287 286 288 290 293 293 292
238 239 239 242 246 251 254 254 255 256 258 263 267 269 270 273 274 276 275 275 278 278 277 277 278 280 282 284 285 286 284 284 285 286 286 285 285 286 286 287 288 290 291 290
240 242 243 243 246 252 254 255 257 257 257 261 266 270 270 270 273 274 275 276 277 277 277 276 278 278 279 281 282 284 284 284 281 283 284 284 283 284 284 284 285 288 289 288
242 244 246 248 249 251 253 254 255 257 260 263 266 268 268 269 270 272 273 274 275 275 275 276 276 277 278 280 281 282 282 283 281 281 281 283 284 284 283 282 282 285 288 288
243 245 247 250 253 255 254 253 255 258 260 263 266 266 266 268 269 270 271 272 272 272 272 274 277 278 280 281 280 280 280 281 283 281 281 282 284 283 282 282 282 285 287 288
244 245 248 251 253 255 256 256 257 259 261 262 264 265 267 268 270 270 270 271 271 272 273 274 276 278 279 280 280 278 278 279 280 280 282 283 284 284 283 284 285 286 288 288
245 246 248 251 255 257 257 258 259 261 261 262 264 266 268 269 271 270 270 269 270 272 274 275 276 276 277 278 280 278 277 277 278 279 279 281 283 283 283 284 285 286 287 287
245 246 249 252 252 253 257 258 260 262 263 263 264 266 268 270 269 269 268 269 270 271 272 273 274 275 276 276 278 278 277 277 276 276 277 279 280 282 283 285 286 286 285 286
246 247 248 251 253 255 257 257 260 261 263 265 266 267 268 268 268 268 268 270 271 272 272 272 274 275 276 276 276 276 277 276 275 275 276 279 281 282 283 284 285 285 286 286
244 247 249 251 254 257 259 259 261 263 264 266 266 267 268 268 268 268 269 270 272 272 272 272 273 274 274 276 276 275 275 274 274 274 276 278 281 282 284 285 285 285 286 287
246 248 252 254 256 259 260 260 262 264 265 265 266 266 267 268 269 270 271 271 271 271 271 272 272 273 273 274 274 275 275 274 273 274 277 280 282 282 282 283 283 284 285 286
249 250 252 254 257 261 262 261 261 264 264 265 265 266 266 268 270 272 272 272 270 270 271 272 272 272 273 273 274 275 275 275 274 274 277 279 280 281 282 283 284 285 285 285
251 253 253 255 258 261 264 264 264 265 264 264 265 267 267 269 270 271 271 271 272 272 272 272 272 273 273 272 274 274 275 275 275 276 277 278 278 280 282 284 285 285 285 287
251 254 256 258 260 262 264 265 265 266 266 265 266 267 268 268 270 270 271 271 272 272 271 271 272 272 273 274 274 275 278 278 279 279 279 279 279 281 282 283 285 286 287 288
Height
5923 5926 5927 5927 5928 5928 5929 5929 5929 5928 5927 5926 5925 5924 5923 5922 5920 5919 5918 5917 5916 5915 5915 5914 5913 5912 5912 5911 5911 5911 5910 5910 5909 5909 5908 5908 5907 5907 5906 5906 5905 5905 5904 5903
5923 5924 5925 5925 5926 5926 5927 5928 5928 5927 5926 5925 5925 5924 5923 5922 5920 5919 5918 5917 5916 5915 5914 5914 5913 5913 5912 5912 5911 5910 5910 5909 5909 5908 5907 5907 5907 5906 5905 5905 5904 5903 5903 5902
5921 5923 5923 5924 5924 5925 5926 5926 5926 5926 5925 5924 5924 5924 5923 5921 5920 5918 5917 5916 5915 5914 5914 5913 5913 5912 5912 5911 5910 5909 5909 5909 5908 5908 5907 5906 5906 5905 5904 5903 5902 5902 5901 5900
5918 5919 5920 5922 5923 5923 5924 5924 5924 5924 5924 5924 5924 5924 5922 5920 5919 5918 5917 5915 5914 5914 5913 5913 5912 5911 5910 5910 5909 5908 5908 5907 5907 5906 5906 5905 5904 5903 5902 5901 5901 5900 5899 5898
5915 5917 5918 5919 5920 5921 5922 5922 5922 5922 5922 5923 5922 5922 5922 5919 5918 5917 5916 5914 5914 5913 5912 5912 5911 5910 5910 5909 5908 5907 5906 5906 5905 5904 5904 5903 5902 5902 5901 5899 5899 5898 5897 5896
5912 5913 5915 5916 5917 5918 5919 5919 5920 5920 5921 5922 5921 5920 5920 5918 5916 5915 5914 5913 5912 5912 5911 5910 5910 5909 5908 5907 5906 5905 5904 5904 5903 5902 5902 5901 5900 5899 5898 5897 5896 5895 5894 5894
5909 5910 5911 5913 5914 5915 5916 5918 5920 5921 5921 5921 5918 5917 5918 5915 5914 5913 5913 5912 5911 5910 5909 5908 5908 5907 5906 5905 5904 5904 5903 5902 5901 5900 5899 5898 5897 5896 5895 5894 5894 5893 5892 5891
5906 5908 5908 5909 5911 5912 5913 5916 5918 5919 5919 5918 5915 5915 5915 5913 5912 5911 5911 5910 5909 5908 5907 5906 5906 5905 5904 5903 5902 5901 5900 5899 5898 5897 5896 5895 5894 5893 5892 5891 5890 5890 5889 5888
5903 5905 5905 5905 5907 5908 5909 5911 5913 5914 5914 5914 5913 5912 5912 5911 5910 5909 5909 5908 5907 5906 5905 5904 5903 5902 5901 5901 5900 5899 5897 5896 5895 5894 5893 5891 5891 5889 5888 5888 5887 5886 5885 5884
5897 5899 5900 5901 5902 5904 5905 5907 5908 5910 5910 5911 5910 5909 5909 5908 5907 5906 5906 5905 5905 5904 5903 5901 5900 5899 5898 5897 5896 5895 5894 5893 5892 5891 5889 5888 5887 5886 5885 5884 5883 5882 5882 5881
5891 5894 5896 5896 5898 5900 5901 5902 5903 5904 5905 5906 5907 5908 5905 5904 5903 5902 5902 5902 5901 5900 5899 5898 5897 5896 5895 5894 5893 5891 5890 5889 5888 5887 5886 5884 5883 5882 5881 5880 5879 5878 5877 5876
5885 5888 5890 5891 5892 5893 5895 5897 5898 5900 5900 5900 5901 5904 5900 5899 5899 5898 5898 5897 5897 5896 5895 5894 5893 5892 5891 5890 5889 5887 5886 5885 5884 5883 5882 5880 5879 5878 5877 5876 5875 5874 5873 5872
5878 5881 5884 5886 5889 5888 5889 5891 5892 5894 5895 5895 5896 5899 5895 5894 5894 5894 5893 5893 5892 5892 5891 5890 5889 5888 5887 5886 5884 5883 5882 5881 5880 5878 5878 5876 5875 5874 5873 5872 5871 5870 5868 5867
5871 5874 5878 5881 5883 5882 5883 5885 5886 5888 5889 5889 5890 5891 5890 5889 5889 5889 5888 5888 5887 5887 5886 5885 5885 5884 5883 5881 5880 5878 5877 5876 5875 5874 5873 5872 5871 5870 5868 5867 5866 5865 5863 5862
5864 5867 5869 5872 5874 5875 5876 5878 5879 5880 5881 5883 5884 5884 5884 5883 5883 5883 5883 5882 5882 5881 5881 5880 5879 5878 5877 5876 5875 5873 5872 5870 5870 5869 5868 5867 5865 5864 5863 5862 5861 5859 5858 5856
5856 5860 5862 5864 5866 5868 5869 5870 5872 5873 5874 5875 5876 5876 5877 5876 5876 5876 5876 5876 5875 5875 5874 5874 5873 5872 5871 5870 5869 5868 5866 5865 5864 5863 5862 5860 5859 5858 5857 5856 5854 5853 5852 5850
5849 5852 5855 5857 5858 5859 5860 5863 5865 5865 5866 5867 5868 5870 5869 5869 5869 5869 5869 5869 5868 5868 5868 5867 5866 5865 5864 5863 5862 5861 5860 5859 5857 5856 5855 5854 5852 5851 5850 5849 5848 5846 5845 5843
5841 5844 5846 5849 5850 5851 5855 5855 5856 5857 5858 5859 5860 5860 5861 5861 5861 5861 5861 5861 5861 5861 5860 5860 5859 5859 5857 5856 5855 5854 5853 5852 5851 5849 5848 5847 5846 5844 5843 5841 5840 5839 5837 5836
5833 5835 5838 5840 5841 5842 5845 5846 5847 5849 5849 5851 5851 5852 5853 5853 5853 5853 5853 5853 5853 5853 5853 5852 5851 5851 5850 5848 5847 5846 5845 5844 5843 5842 5841 5840 5838 5837 5835 5834 5832 5831 5829 5828
5824 5827 5830 5831 5833 5835 5838 5838 5838 5840 5840 5842 5842 5843 5844 5845 5845 5845 5845 5845 5845 5844 5844 5844 5843 5842 5841 5840 5839 5838 5837 5836 5835 5834 5833 5832 5830 5829 5827 5826 5824 5822 5820 5819
5816 5818 5820 5822 5823 5826 5828 5829 5830 5833 5833 5833 5834 5834 5835 5836 5837 5836 5836 5836 5835 5835 5835 5834 5834 5833 5833 5832 5830 5829 5828 5827 5826 5825 5824 5823 5822 5820 5818 5817 5815 5813 5811 5809
5808 5810 5812 5814 5816 5819 5819 5820 5822 5823 5823 5824 5824 5825 5826 5826 5826 5826 5826 5826 5826 5825 5825 5825 5825 5824 5823 5823 5822 5821 5820 5818 5816 5815 5814 5813 5812 5810 5809 5807 5805 5803 5801 5799
5800 5803 5804 5806 5809 5809 5809 5810 5812 5813 5814 5814 5815 5816 5816 5816 5816 5817 5817 5817 5816 5816 5816 5815 5815 5815 5814 5813 5812 5811 5810 5809 5807 5806 5805 5804 5802 5800 5799 5797 5795 5793 5791 5789
5791 5793 5795 5796 5798 5799 5800 5801 5802 5803 5804 5805 5805 5806 5806 5807 5807 5807 5807 5807 5807 5806 5806 5806 5805 5805 5805 5804 5803 5802 5801 5799 5798 5797 5795 5794 5793 5791 5789 5788 5786 5783 5781 5778
5782 5784 5785 5787 5789 5791 5792 5793 5793 5794 5794 5795 5795 5796 5797 5797 5797 5797 5797 5797 5797 5797 5796 5796 5796 5795 5794 5794 5793 5792 5790 5789 5788 5786 5785 5784 5782 5781 5780 5778 5775 5773 5770 5768
5774 5776 5777 5778 5780 5782 5783 5784 5784 5784 5785 5785 5785 5786 5786 5787 5787 5787 5787 5787 5787 5786 5786 5785 5785 5785 5784 5783 5783 5782 5781 5779 5778 5777 5776 5774 5773 5771 5770 5767 5765 5762 5760 5757